Location: Chuathbaluk
(61.5726°N, 159.2454°W)
Time: 02:30:25
(UTC+00:00)

Explorer 7 - Visible Passes

Search period start: 04 December 2021 00:00
Search period end: 14 December 2021 00:00
Orbit: 483 x 675 km, 50.3° (Epoch: 03 December)

Date Brightness Start Highest point End Pass type
(mag) Time Alt. Az. Time Alt. Az. Time Alt. Az.
04 Dec 9.5 18:11:28 10° SSW 18:14:01 16° S 18:16:30 10° SE visible
05 Dec 9.7 16:36:52 10° S 16:38:26 12° SSE 16:39:58 10° SE visible
05 Dec 9.4 18:15:05 10° SW 18:17:46 17° S 18:20:22 10° SE visible
06 Dec 9.5 16:39:56 10° SSW 16:42:08 14° SSE 16:44:17 10° SE visible
06 Dec 9.3 18:18:49 10° SW 18:21:31 17° S 18:24:08 10° SE visible
07 Dec 9.3 16:43:18 10° SSW 16:45:52 16° SSE 16:48:21 10° SE visible
07 Dec 9.3 18:22:38 10° SW 18:25:15 16° S 18:27:48 10° SSE visible
08 Dec 9.7 15:10:13 11° SSE 15:10:17 11° SSE 15:11:14 10° SE visible
08 Dec 9.2 16:46:49 10° SW 16:49:36 17° S 16:52:17 10° SE visible
08 Dec 9.3 18:26:32 10° SW 18:28:59 15° SSW 18:31:22 10° SSE visible
09 Dec 9.5 15:14:16 13° SSE 15:14:16 13° SSE 15:15:55 10° SE visible
09 Dec 9.1 16:50:32 10° SW 16:53:20 18° S 16:56:06 10° SE visible
09 Dec 9.3 18:30:33 10° SW 18:32:41 14° SSW 18:34:44 10° SSE visible
10 Dec 9.3 15:18:15 15° SSE 15:18:15 15° SSE 15:20:06 10° SE visible
10 Dec 9.0 16:54:31 11° SW 16:57:04 18° S 16:59:51 10° SE visible
10 Dec 9.4 18:34:50 10° SW 18:36:21 12° SSW 18:37:51 10° S visible
11 Dec 9.2 15:22:10 16° SSE 15:22:10 16° SSE 15:24:06 10° SE visible
11 Dec 9.0 16:58:26 12° SW 17:00:47 17° S 17:03:29 10° SSE visible
12 Dec 9.2 15:26:04 17° SSE 15:26:04 17° SSE 15:27:59 10° SE visible
12 Dec 9.1 17:02:19 11° SW 17:04:30 16° SSW 17:07:01 10° SSE visible
13 Dec 9.2 15:29:56 17° SSE 15:29:56 17° SSE 15:31:46 10° SE visible
13 Dec 9.2 17:06:12 11° SW 17:08:10 14° SSW 17:10:22 10° SSE visible
